[[{"header":{"parameterUnit":"m.s-1","parameterCategory":1,"la1":30.2991,"la2":30.254,"lo1":-89.0895,"lo2":-89.0444,"dy":0.0017,"dx":0.0017,"nx":28,"ny":28,"refTime":"2024-03-30T21:00:00:Z","depth":0,"parameterNumber":2,"parameterNumberName":"U-component_of_WINDS"},"data":[0,0,0,0,0,0,0,0,0,0,0,0,0,0,0,0,0,0,0,0,0,0,0,0,0,0,0,0,0,0,0,0,0,0,0,0,0,0,0,0,0,0,0,0,0,0,0,0,0,0,0,0,0,0,0,0,0,0,-1.1273,-1.1274,0,-1.1309,-1.131,-1.131,-1.1325,-1.1324,-1.1324,-1.1324,-1.1361,-1.1362,-1.1363,0,0,0,0,0,0,0,0,0,0,0,0,0,-1.1218,-1.1219,-1.1273,-1.1274,-1.1274,-1.1309,-1.131,-1.131,-1.1325,-1.1324,-1.1324,-1.1324,-1.1361,-1.1362,-1.1363,0,0,0,0,0,0,0,0,0,0,0,0,0,-1.1247,-1.1219,-1.1273,-1.1286,-1.1287,-1.1309,-1.131,-1.131,-1.1325,-1.1324,-1.1324,-1.1324,-1.136,-1.1362,-1.1364,-1.1376,0,0,-1.1368,-1.1369,0,0,0,0,0,0,0,0,-1.1245,-1.1249,-1.1283,-1.1285,-1.1287,-1.1312,-1.1304,-1.1332,-1.1325,-1.131,-1.1324,-1.1324,-1.1345,-1.1348,-1.1355,-1.1378,-1.1379,-1.1369,-1.137,-1.137,-1.1371,0,0,0,0,0,0,0,-1.1243,-1.1247,-1.1288,-1.1284,-1.1286,-1.129,-1.1294,-1.1309,-1.1328,-1.1312,-1.1313,-1.1317,-1.1346,-1.1353,-1.1356,-1.138,-1.1369,-1.137,-1.1371,-1.1372,-1.1416,-1.1416,0,0,0,0,0,0,-1.1239,-1.1246,-1.1287,-1.1289,-1.1265,-1.1291,-1.1295,-1.1304,-1.1328,-1.1331,-1.1317,-1.1317,-1.1351,-1.1354,-1.1357,-1.1374,-1.137,-1.1372,-1.1373,-1.1416,-1.1416,-1.1416,0,0,0,0,0,0,-1.1238,-1.1243,-1.1285,-1.1267,-1.1273,-1.1292,-1.1302,-1.1305,-1.1312,-1.1332,-1.1335,-1.1321,-1.1351,-1.1355,-1.1371,-1.1375,-1.1372,-1.1374,-1.1415,-1.1416,-1.1416,-1.1407,0,0,0,0,0,0,-1.1236,-1.1242,-1.1247,-1.1267,-1.1274,-1.1298,-1.1302,-1.1306,-1.1315,-1.1316,-1.1337,-1.134,-1.1351,-1.1369,-1.1373,-1.1377,-1.1375,-1.1415,-1.1415,-1.1416,-1.1407,-1.1407,-1.1407,0,0,0,0,0,-1.1234,-1.1243,-1.1247,-1.1252,-1.128,-1.1299,-1.1302,-1.1315,-1.1315,-1.132,-1.1333,-1.1339,-1.1374,-1.1371,-1.1375,-1.138,-1.1415,-1.1415,-1.1416,-1.1407,-1.1407,-1.1407,0,0,0,0,0,0,-1.1222,-1.1245,-1.125,-1.1266,-1.128,-1.1301,-1.1308,-1.1314,-1.1329,-1.1329,-1.1344,-1.1348,-1.1364,-1.1374,-1.1369,-1.1394,-1.1395,-1.1397,-1.1387,-1.1387,-1.1387,-1.1384,-1.1376,0,0,0,0,0,-1.1221,-1.1233,-1.1254,-1.1265,-1.1272,-1.1289,-1.1297,-1.1306,-1.1321,-1.1327,-1.1341,-1.1355,-1.137,-1.1379,-1.1393,-1.1409,-1.1413,-1.1414,-1.1414,-1.1414,-1.1415,-1.1424,-1.1425,-1.1418,-1.1418,-1.1418,0,0,-1.1219,-1.1233,-1.124,-1.1263,-1.1275,-1.1288,-1.1294,-1.1307,-1.1317,-1.1329,-1.1345,-1.1356,-1.1374,-1.139,-1.1397,-1.1398,-1.1418,-1.1415,-1.1414,-1.1416,-1.1425,-1.1426,-1.1426,-1.1418,-1.1418,-1.1418,0,0,-1.1222,-1.1234,-1.1246,-1.1258,-1.1276,-1.1287,-1.1289,-1.131,-1.1317,-1.1334,-1.1343,-1.1356,-1.138,-1.1392,-1.1402,-1.141,-1.1417,-1.1415,-1.1414,-1.1423,-1.1424,-1.1424,-1.1428,-1.1429,-1.1416,-1.1416,-1.1416,0,-1.1217,-1.1237,-1.125,-1.1264,-1.1273,-1.1285,-1.1297,-1.1308,-1.133,-1.1337,-1.1338,-1.1369,-1.1382,-1.1401,-1.1403,-1.141,-1.1414,-1.1412,-1.1423,-1.1423,-1.1424,-1.1427,-1.1429,-1.1415,-1.1415,-1.1415,-1.1415,0,-1.1231,-1.1244,-1.1251,-1.1272,-1.1283,-1.1295,-1.1311,-1.132,-1.1328,-1.1339,-1.1356,-1.1372,-1.139,-1.1395,-1.1403,-1.1416,-1.1416,-1.142,-1.1421,-1.1424,-1.1428,-1.1429,-1.1415,-1.1415,-1.1415,-1.1415,0,0,-1.1226,-1.1255,-1.1257,-1.1267,-1.1288,-1.1299,-1.1312,-1.133,-1.1338,-1.1353,-1.1364,-1.1385,-1.1389,-1.14,-1.1409,-1.1417,-1.1423,-1.142,-1.142,-1.142,-1.1439,-1.1436,-1.1437,-1.1428,-1.1428,-1.1428,-1.1437,0,-1.1232,-1.1256,-1.1269,-1.1287,-1.13,-1.1312,-1.1324,-1.1338,-1.1349,-1.1362,-1.1374,-1.1389,-1.1392,-1.1399,-1.1407,-1.1421,-1.1427,-1.142,-1.1439,-1.1439,-1.1434,-1.1439,-1.1435,-1.1443,-1.1439,-1.1439,-1.1439,0,-1.1242,-1.1257,-1.1277,-1.1297,-1.1303,-1.1313,-1.133,-1.1343,-1.136,-1.1367,-1.1379,-1.1389,-1.1404,-1.1404,-1.1425,-1.142,-1.1429,-1.1436,-1.1437,-1.1439,-1.1439,-1.1441,-1.1446,-1.1447,-1.1441,-1.1441,-1.1441,0,-1.1237,-1.1262,-1.1277,-1.1285,-1.1309,-1.1316,-1.1326,-1.1343,-1.1353,-1.1369,-1.1376,-1.1393,-1.1402,-1.1415,-1.1429,-1.1428,-1.1449,-1.145,-1.1455,-1.1455,-1.1459,-1.1458,-1.1465,-1.1465,-1.1465,-1.1465,-1.1465,0,-1.1243,-1.1254,-1.1275,-1.1284,-1.1298,-1.1313,-1.1326,-1.1337,-1.1352,-1.1364,-1.1376,-1.1387,-1.1405,-1.1418,-1.143,-1.1445,-1.145,-1.1456,-1.1459,-1.1455,-1.1454,-1.146,-1.146,-1.1465,-1.1465,-1.1465,-1.1465,0,-1.1239,-1.1254,-1.1271,-1.1292,-1.1298,-1.1307,-1.1325,-1.1335,-1.1347,-1.1362,-1.1366,-1.1385,-1.1402,-1.1417,-1.1439,-1.1447,-1.1463,-1.1466,-1.1457,-1.1458,-1.1462,-1.1462,-1.1473,-1.1476,-1.1474,-1.1474,-1.1474,0,-1.1241,-1.125,-1.1273,-1.1281,-1.1291,-1.1305,-1.1316,-1.1331,-1.1341,-1.1362,-1.1369,-1.1387,-1.1401,-1.1427,-1.1443,-1.146,-1.1464,-1.1467,-1.1467,-1.1463,-1.1464,-1.1463,-1.1465,-1.1467,-1.1467,-1.1467,-1.1467,0,-1.1244,-1.125,-1.1265,-1.1281,-1.1293,-1.1307,-1.1322,-1.1329,-1.1347,-1.1358,-1.1375,-1.1386,-1.1409,-1.1426,-1.1445,-1.1457,-1.1465,-1.1467,-1.1469,-1.1465,-1.1459,-1.1462,-1.1456,-1.1466,-1.1466,-1.1466,-1.1466,-1.1466,-1.1243,-1.1252,-1.1269,-1.1284,-1.1297,-1.131,-1.1321,-1.1334,-1.1348,-1.1368,-1.1376,-1.1393,-1.1411,-1.1437,-1.1449,-1.1463,-1.1464,-1.1467,-1.1468,-1.1469,-1.1468,-1.1457,-1.1466,-1.1466,-1.1466,-1.1466,-1.1466,0,-1.1246,-1.1258,-1.1272,-1.1292,-1.1304,-1.1311,-1.1327,-1.1337,-1.1352,-1.1368,-1.1382,-1.1402,-1.1419,-1.1436,-1.1454,-1.1462,-1.1467,-1.1467,-1.1466,-1.1469,-1.1465,-1.1462,-1.1463,-1.1463,-1.1463,-1.1463,-1.1463,-1.1463,-1.1249,-1.1264,-1.1273,-1.1295,-1.1307,-1.1324,-1.1333,-1.1345,-1.1358,-1.1379,-1.1393,-1.1405,-1.1421,-1.1441,-1.1457,-1.1462,-1.1468,-1.1467,-1.1472,-1.1469,-1.1469,-1.1469,-1.1466,-1.1468,-1.1468,-1.1475,-1.1475,-1.1475]},{"header":{"parameterUnit":"m.s-1","parameterCategory":1,"la1":30.2991,"la2":30.254,"lo1":-89.0895,"lo2":-89.0444,"dy":0.0017,"dx":0.0017,"nx":28,"ny":28,"refTime":"2024-03-30T21:00:00:Z","depth":0,"parameterNumber":3,"parameterNumberName":"V-component_of_WINDS"},"data":[0,0,0,0,0,0,0,0,0,0,0,0,0,0,0,0,0,0,0,0,0,0,0,0,0,0,0,0,0,0,0,0,0,0,0,0,0,0,0,0,0,0,0,0,0,0,0,0,0,0,0,0,0,0,0,0,0,0,4.4536,4.4537,0,4.4622,4.4623,4.4624,4.4634,4.4633,4.4632,4.4631,4.4713,4.4716,4.4719,0,0,0,0,0,0,0,0,0,0,0,0,0,4.4377,4.438,4.4536,4.4537,4.4538,4.4621,4.4623,4.4624,4.4634,4.4633,4.4632,4.4631,4.4712,4.4716,4.4719,0,0,0,0,0,0,0,0,0,0,0,0,0,4.4452,4.4381,4.4536,4.4553,4.4556,4.4621,4.4623,4.4624,4.4634,4.4633,4.4632,4.4631,4.4711,4.4716,4.472,4.4772,0,0,4.4733,4.4735,0,0,0,0,0,0,0,0,4.4448,4.4458,4.455,4.4552,4.4555,4.4616,4.4597,4.4673,4.4635,4.4604,4.4631,4.463,4.4682,4.4688,4.4707,4.4776,4.4779,4.4734,4.4737,4.4738,4.474,0,0,0,0,0,0,0,4.4443,4.4455,4.457,4.4551,4.4554,4.4556,4.4565,4.4611,4.4648,4.4607,4.4608,4.4618,4.4683,4.4703,4.4709,4.478,4.4734,4.4738,4.474,4.4742,4.4899,4.49,0,0,0,0,0,0,4.4435,4.445,4.4567,4.4572,4.4498,4.456,4.457,4.4597,4.4648,4.4655,4.4619,4.4618,4.4696,4.4704,4.4712,4.4778,4.4738,4.4743,4.4745,4.4897,4.4899,4.4901,0,0,0,0,0,0,4.4432,4.4445,4.4563,4.4512,4.4527,4.4564,4.4594,4.46,4.462,4.4658,4.4664,4.4633,4.4695,4.4706,4.4758,4.4781,4.4745,4.4749,4.4895,4.4898,4.49,4.4909,0,0,0,0,0,0,4.4427,4.4444,4.4465,4.4512,4.453,4.4609,4.4596,4.4602,4.4628,4.4628,4.4672,4.4678,4.4695,4.4751,4.4762,4.4786,4.4752,4.4894,4.4896,4.4899,4.4907,4.4912,4.4916,0,0,0,0,0,4.4421,4.4462,4.4466,4.448,4.4557,4.461,4.462,4.464,4.463,4.4651,4.4676,4.4677,4.4777,4.4757,4.4769,4.4795,4.4892,4.4896,4.4899,4.4905,4.4911,4.4916,0,0,0,0,0,0,4.4414,4.4469,4.4473,4.4531,4.4567,4.4612,4.4639,4.4645,4.4682,4.468,4.4702,4.4712,4.4764,4.4784,4.4761,4.4849,4.4833,4.4839,4.4834,4.4839,4.4844,4.4838,4.4756,0,0,0,0,0,4.442,4.4461,4.4505,4.4552,4.457,4.4602,4.4626,4.4639,4.4675,4.4689,4.4718,4.4752,4.4791,4.4816,4.4854,4.491,4.4921,4.4934,4.4938,4.4942,4.4947,4.498,4.4987,4.4912,4.4912,4.4912,0,0,4.4431,4.4466,4.449,4.4552,4.4581,4.4622,4.4614,4.4657,4.4687,4.4695,4.4748,4.4769,4.4809,4.4864,4.489,4.4883,4.497,4.4946,4.4948,4.4952,4.4984,4.4991,4.4998,4.4914,4.4914,4.4913,0,0,4.4473,4.4503,4.4547,4.4577,4.4621,4.4643,4.4653,4.4699,4.4715,4.4768,4.4776,4.4811,4.4878,4.4907,4.493,4.4985,4.4988,4.4997,4.5019,4.5051,4.5057,4.5062,4.5083,4.5091,4.5001,4.5002,4.5002,0,4.448,4.4544,4.4567,4.4612,4.4639,4.4651,4.4695,4.4722,4.4776,4.4794,4.4786,4.4872,4.4899,4.4962,4.4977,4.4994,4.5007,4.4992,4.5054,4.506,4.5065,4.5086,4.5094,4.5002,4.5002,4.5002,4.5002,0,4.4552,4.4596,4.4626,4.4681,4.4712,4.4755,4.4784,4.4812,4.4823,4.4845,4.49,4.4933,4.4979,4.4995,4.5004,4.506,4.5055,4.505,4.5035,4.5073,4.5093,4.5101,4.5004,4.5003,4.5003,4.5003,0,0,4.4591,4.4661,4.4671,4.4698,4.4749,4.4783,4.4827,4.4875,4.4899,4.4936,4.4974,4.5032,4.5029,4.5056,4.5069,4.5097,4.5141,4.5089,4.509,4.5099,4.5206,4.521,4.5219,4.5143,4.5145,4.5146,4.5203,0,4.4639,4.4722,4.4745,4.4813,4.4855,4.4868,4.4907,4.4942,4.4964,4.5002,4.5025,4.5067,4.5059,4.5076,4.5104,4.513,4.5163,4.5125,4.5179,4.518,4.517,4.5229,4.5233,4.5285,4.5211,4.5212,4.5213,0,4.4707,4.4749,4.4823,4.4872,4.489,4.4925,4.4972,4.5008,4.5048,4.5062,4.5094,4.5105,4.5151,4.5134,4.5198,4.5172,4.5195,4.5211,4.5214,4.522,4.52,4.5238,4.5302,4.5311,4.5225,4.5224,4.5224,0,4.473,4.4804,4.4859,4.4881,4.4939,4.4963,4.4988,4.5028,4.5056,4.5096,4.5115,4.5159,4.5183,4.5217,4.5239,4.5224,4.5303,4.5286,4.5316,4.5315,4.5332,4.5331,4.5402,4.5345,4.5345,4.5345,4.5344,0,4.4782,4.4827,4.4871,4.4904,4.4955,4.4981,4.5031,4.5056,4.5091,4.513,4.5142,4.5177,4.5205,4.5244,4.5261,4.5313,4.5323,4.5336,4.534,4.5336,4.5334,4.5351,4.5349,4.5347,4.5346,4.5346,4.5345,0,4.4816,4.4847,4.4908,4.4959,4.4973,4.5008,4.5052,4.5084,4.5108,4.5156,4.5169,4.5205,4.5252,4.5278,4.5335,4.5347,4.5406,4.5407,4.5393,4.5395,4.5424,4.5421,4.5509,4.5523,4.5455,4.5456,4.5456,0,4.4848,4.4884,4.494,4.4968,4.4994,4.5038,4.5068,4.5095,4.5125,4.5176,4.5203,4.5251,4.5291,4.5365,4.5395,4.544,4.5444,4.5472,4.545,4.5445,4.5446,4.5444,4.5448,4.5475,4.5476,4.5476,4.5477,0,4.4903,4.4917,4.4961,4.501,4.5046,4.5086,4.5125,4.5147,4.518,4.5213,4.5263,4.5294,4.5355,4.5403,4.5451,4.5475,4.5482,4.5483,4.5493,4.5489,4.548,4.5487,4.5404,4.5481,4.5481,4.548,4.548,4.548,4.4938,4.4971,4.5017,4.5065,4.5099,4.5136,4.517,4.5199,4.5242,4.5295,4.5308,4.536,4.5401,4.5467,4.5493,4.5533,4.5528,4.5541,4.5545,4.5548,4.555,4.5473,4.5542,4.5542,4.5542,4.5542,4.5542,0,4.4994,4.5025,4.507,4.5126,4.5165,4.517,4.5214,4.5246,4.5293,4.5331,4.5372,4.5429,4.5476,4.5512,4.556,4.5586,4.559,4.5598,4.5596,4.5602,4.5551,4.5539,4.5593,4.5593,4.5593,4.5593,4.5593,4.5593,4.5028,4.5086,4.5106,4.518,4.521,4.5263,4.5288,4.5323,4.5354,4.5419,4.546,4.5483,4.5521,4.5572,4.5616,4.5625,4.5642,4.565,4.5659,4.5611,4.5605,4.56,4.5589,4.5653,4.5653,4.5707,4.5707,4.5708]}]]